Date,TemperatureHighF,TemperatureAvgF,TemperatureLowF,DewpointHighF,DewpointAvgF,DewpointLowF,HumidityHigh,HumidityAvg,HumidityLow,PressureMaxIn,PressureMinIn,WindSpeedMaxMPH,WindSpeedAvgMPH,GustSpeedMaxMPH,PrecipitationSumIn
2013-4-1,39.4,31.7,24.1,29.2,12.0,4.6,86,45,29,30.15,29.71,17,7,20,0.00
2013-4-2,46.4,31.4,20.3,17.0,10.8,5.0,81,45,23,30.30,30.12,14,5,19,0.00
2013-4-3,48.7,32.7,18.5,15.3,10.0,5.6,74,41,21,30.47,30.27,14,4,14,0.00
2013-4-4,59.5,42.7,27.9,20.6,13.7,8.9,51,32,17,30.41,29.94,20,7,20,0.00
2013-4-5,54.7,40.6,29.1,28.8,17.3,8.1,86,42,20,30.24,29.97,20,5,20,0.00
2013-4-6,52.0,35.2,28.8,19.3,15.8,9.0,64,47,27,30.30,29.76,29,10,29,0.00
2013-4-7,57.0,46.6,29.5,45.2,29.8,18.8,78,54,27,30.09,29.59,30,8,30,0.00
2013-4-8,59.7,42.1,27.0,51.6,36.2,22.3,96,80,48,30.09,29.68,25,7,25,0.38
2013-4-9,50.2,43.3,38.8,46.4,41.6,37.7,98,94,71,30.12,29.88,14,6,14,1.44
2013-4-10,40.5,38.6,37.0,39.9,37.4,30.8,98,96,78,30.12,29.91,17,9,17,1.08
2013-4-11,37.6,35.8,34.7,35.4,33.3,30.4,98,91,76,30.09,29.74,23,13,23,0.67
2013-4-12,46.4,37.6,33.3,38.1,33.6,27.5,98,86,58,29.79,29.59,18,8,20,0.33
2013-4-13,43.5,38.0,35.8,38.7,27.6,18.0,98,68,43,30.03,29.79,20,6,22,0.00
2013-4-14,50.7,40.7,31.1,31.8,27.1,21.9,86,59,40,30.18,29.97,17,6,19,0.00
2013-4-15,69.3,56.1,41.0,53.7,40.9,29.5,83,58,44,29.97,29.82,27,10,27,0.00
2013-4-16,63.9,52.6,44.2,55.6,38.6,26.3,98,64,27,30.27,29.85,14,4,14,0.33
2013-4-17,61.2,46.8,36.9,42.2,32.3,25.2,96,60,29,30.39,30.03,22,8,22,10.16
2013-4-18,75.0,57.8,44.4,62.7,53.1,39.6,98,85,60,30.09,29.50,32,11,32,0.66
2013-4-19,60.1,44.0,32.7,58.8,35.5,21.3,98,73,45,29.74,29.32,37,13,37,1.00
2013-4-20,40.8,34.2,26.6,27.2,16.9,10.6,76,50,37,30.50,29.74,17,5,17,0.04
2013-4-21,55.0,39.5,24.6,26.9,19.9,15.7,82,49,26,30.71,30.47,16,6,19,0.00
2013-4-22,68.2,49.2,31.6,29.6,23.4,18.0,71,40,17,30.53,30.18,15,6,15,0.00
2013-4-23,67.3,54.9,42.3,53.2,37.5,28.8,95,55,32,30.21,29.82,30,9,30,0.46
2013-4-24,48.4,39.2,34.2,45.7,31.3,19.8,98,76,40,30.15,29.85,14,6,15,0.54
2013-4-25,56.3,42.4,35.6,36.3,26.1,19.8,82,54,29,30.36,30.09,24,7,24,0.04
2013-4-26,63.0,48.8,31.1,32.5,26.8,21.5,83,46,25,30.50,30.30,22,7,23,0.00
2013-4-27,74.1,58.8,42.8,37.2,30.3,22.2,64,37,16,30.36,30.12,18,7,18,0.00
2013-4-28,64.0,54.5,48.9,52.4,41.4,29.1,94,64,38,30.15,29.85,14,4,15,0.08
2013-4-29,75.9,62.0,52.5,56.4,50.2,44.1,98,70,35,29.94,29.85,115,3,115,0.00
2013-4-30,74.7,63.0,55.8,55.4,51.2,47.5,96,67,39,30.06,29.88,27,10,31,0.33